Torna al catalogo

COSMOS 1275 DEB

AttivoPO
NORAD 14627·DEBRIS·🇷🇺 Russia

Lanciato Jun 4, 1981 da Plesetsk Cosmodrome

Loading…

Prossimi Passaggi (prossime 24 ore)

TLE

AggiornatoSource: Space-Track

Epoca: Sep 13, 2026, 16:32 UTC

1 14627U 81053JQ  26256.68906771  .00001088  00000-0  62637-3 0  9996
2 14627  82.7841 334.8810 0035356 106.1150  46.0684 14.08078656173885

Traccia COSMOS 1275 DEB in tempo reale con AllMySat

Download on the App Store